Flag for Germany Weather past 2 weeks in Velbert, North Rhine-Westphalia, Germany

Now
39 °F

Clear.


Feels Like: 36 °F
Forecast: 42 / 48 °F
Wind: 3 mph from Southwest

Location: Essen

Current Time: Dec 21, 2014 at 3:19:37 AM

Latest Report: Dec 21, 2014 at 2:00 AM


Visibility: 9 mi

Pressure: 30.36 "Hg

Humidity: 96%

Dew point: 38 °F

Location of VelbertLocation

Historic Weather in Velbert — Graph

°F

Velbert temperature yesterday

Maximum temperature yesterday: 44 °F (at 4:00 PM)
Minimum temperature yesterday: 39 °F (at 6:00 AM)
Average temperature yesterday: 41 °F

Past Weeks' High & Low Weather Summary

 TemperatureHumidityPressure
High53 °F (Dec 18, 6:00 PM)100% (Dec 6, 3:00 AM)30.37 "Hg (Dec 6, 3:00 AM)
Low32 °F (Dec 14, 8:00 AM)65% (Dec 7, 3:00 PM)29.38 "Hg (Dec 12, 3:00 PM)
Average41 °F92%29.96 "Hg
* Reported Dec 6 2:00 AM — Dec 21 2:00 AM, Velbert, Weather by CustomWeather, © 2014

Note: Actual official high and low records may vary slightly from our data, if they occured in-between our weather recording intervals... More about our weather records

Advertising

Velbert weather history for previous 24 hours

 ConditionsComfort  
Time TempWeatherWind HumidityBarometerVisibility
2:00 AM
Dec 21
39 °FClear.3 mph96%30.36 "Hg9 mi
1:00 AM39 °FPassing clouds.3 mph92%30.35 "Hg14 mi
12:00 AM40 °FPassing clouds.3 mph92%30.34 "Hg14 mi
11:00 PM
Dec 20
40 °FOvercast.3 mph93%30.31 "Hg11 mi
10:00 PM39 °FLow clouds.3 mph94%30.29 "Hg16 mi
9:00 PM41 °FLow clouds.6 mph87%30.25 "Hg22 mi
8:00 PM41 °FClear.5 mph83%30.21 "Hg19 mi
7:00 PM41 °FPassing clouds.5 mph88%30.17 "Hg12 mi
6:00 PM43 °FOvercast.6 mph81%30.13 "Hg28 mi
5:00 PM41 °FLight rain. Low clouds.7 mph92%30.10 "Hg1 mi
4:00 PM44 °FLight rain. Low clouds.7 mph82%30.08 "Hg6 mi
3:00 PM43 °FLight freezing rain. Low clouds.7 mph90%30.07 "Hg7 mi
2:00 PM43 °FLight rain. Low clouds.9 mph88%30.07 "Hg5 mi
1:00 PM42 °FLight freezing rain. Low clouds.8 mph87%30.09 "Hg5 mi
12:00 PM42 °FOvercast.8 mph85%30.10 "Hg19 mi
11:00 AM41 °FOvercast.9 mph86%30.12 "Hg19 mi
10:00 AM40 °FOvercast.7 mph89%30.12 "Hg19 mi
9:00 AM40 °FOvercast.7 mph90%30.13 "Hg18 mi
8:00 AM39 °FOvercast.6 mph91%30.14 "Hg18 mi
7:00 AM39 °FClear.6 mph90%30.14 "Hg19 mi
6:00 AM39 °FPassing clouds.6 mph90%30.15 "Hg19 mi
5:00 AM39 °FPassing clouds.6 mph89%30.14 "Hg19 mi
4:00 AM39 °FClear.6 mph89%30.14 "Hg19 mi
3:00 AM39 °FPassing clouds.6 mph88%30.14 "Hg17 mi
Weather by CustomWeather, © 2014

See weather overviewHow to use our weather pages